User: anonymous   Login
Location: Theydon Bois
(51.6750°N, 0.1050°E)
Time: 23:20:02
(UTC+01:00)
Language:

NOSS 3-3 (C) - Orbit

View from above orbital plane
View from above orbital plane
View from above satellite
View from above satellite

Ground track
Ground track

The orbit data is extracted from the following two-line orbital elements,

1 28541U 05004C   17288.86824530 0.00000000  00000-0  00000-0 0    04
2 28541  63.4300 241.0121 0279000 357.8950   2.1050 13.40734547    00
Epoch (UTC): 15 October 2017 20:50:16
Eccentricity: 0.0279000
inclination: 63.4300°
perigee height: 898 km
apogee height: 1315 km
right ascension of ascending node: 241.0121°
argument of perigee: 357.8950°
revolutions per day: 13.40734547
mean anomaly at epoch: 2.1050°
orbit number at epoch: 0

The dashed part of the orbit path shows where the satellite is in the earth's shadow,  

DLR